Weather History for KCYS - March, 2012

Change the Weather History Date:

Monday, March 5, 2012

  Actual Average Record
Temperature  
Mean Temperature 43 °F 34 °F  
Max Temperature 58 °F 45 °F 66 °F (1910)
Min Temperature 28 °F 22 °F -14 °F (1948)
Degree Days  
Heating Degree Days 22 32  
Month to date heating degree days 162 161  
Since 1 July heating degree days 5144 5180  
Cooling Degree Days 0 0  
Month to date cooling degree days 0 0  
Year to date cooling degree days 0 0  
Moisture  
Dew Point 12 °F    
Average Humidity 41    
Maximum Humidity 69    
Minimum Humidity 13    
Precipitation  
Precipitation 0.00 in 0.03 in 0.93 in (1990)
Month to date precipitation 0.00 0.13  
Year to date precipitation 1.03 0.93  
Snow  
Snow 0.00 in 0.30 in 9.00 in (1983)
Month to date snowfall 0.0 1.5  
Since 1 July snowfall 51.1 38.0  
Snow Depth 0.00 in    
Sea Level Pressure  
Sea Level Pressure 29.89 in    
Wind  
Wind Speed 18 mph (WSW)    
Max Wind Speed 33 mph    
Max Gust Speed 44 mph    
Visibility 10 miles    
Events      
T = Trace of Precipitation, MM = Missing Value Source: NWS Daily Summary

Daily Weather History Graph

Daily Weather History Graph

Search for Another Location

Airport or City:

Trip Planner

Search our weather history database for the weather conditions in past years. The results will help you decide how hot, cold, wet, or windy it might be!

Date:

Astronomy

Mar. 05, 2012 Rise Set
Actual Time 6:26 AM MST 5:55 PM MST
Civil Twilight 5:58 AM MST 6:22 PM MST
Nautical Twilight 5:27 AM MST 6:54 PM MST
Astronomical Twilight 4:55 AM MST 7:26 PM MST
Moon 3:15 PM MST (3/5) 4:28 AM MST (3/5)
Length of Visible Light 12h 24m
Length of Day
11h 29m
Waxing Gibbous, 91% of the Moon is Illuminated
Mar 5
Waxing Gibbous
Mar 8
Full
Mar 14
Last Quarter
Mar 22
New
Mar 30
First Quarter

Hourly Weather History & Observations

Time (MST) Temp. Windchill Dew Point Humidity Pressure Visibility Wind Dir Wind Speed Gust Speed Precip Events Conditions
12:53 AM 33.1 °F 23.0 °F 19.9 °F 59% 30.06 in 10.0 mi SW 15.0 mph - N/A   Clear
1:53 AM 32.0 °F 23.0 °F 21.0 °F 64% 30.04 in 10.0 mi SW 11.5 mph - N/A   Clear
2:53 AM 28.9 °F 21.1 °F 19.0 °F 67% 30.02 in 10.0 mi SSW 8.1 mph - N/A   Clear
3:53 AM 42.1 °F 33.1 °F 9.0 °F 26% 29.96 in 10.0 mi WSW 20.7 mph - N/A   Clear
4:53 AM 39.0 °F 32.8 °F 9.0 °F 29% 29.99 in 10.0 mi SW 9.2 mph - N/A   Clear
5:53 AM 35.1 °F 27.4 °F 10.9 °F 37% 30.01 in 10.0 mi WSW 10.4 mph - N/A   Clear
6:53 AM 36.0 °F 29.0 °F 12.0 °F 37% 30.02 in 10.0 mi WSW 9.2 mph - N/A   Clear
7:53 AM 43.0 °F 37.2 °F 12.9 °F 30% 29.96 in 10.0 mi SW 10.4 mph - N/A   Clear
8:53 AM 48.9 °F - 9.0 °F 20% 29.94 in 10.0 mi WSW 24.2 mph 31.1 mph N/A   Clear
9:53 AM 53.1 °F - 5.0 °F 14% 29.92 in 10.0 mi West 26.5 mph 38.0 mph N/A   Clear
10:53 AM 54.0 °F - 5.0 °F 14% 29.92 in 10.0 mi West 29.9 mph 41.4 mph N/A   Clear
11:53 AM 55.9 °F - 7.0 °F 14% 29.92 in 10.0 mi West 24.2 mph 35.7 mph N/A   Clear
12:53 PM 57.0 °F - 9.0 °F 15% 29.89 in 10.0 mi West 25.3 mph 36.8 mph N/A   Clear
1:53 PM 57.0 °F - 10.9 °F 16% 29.86 in 10.0 mi WSW 20.7 mph 28.8 mph N/A   Clear
2:53 PM 57.0 °F - 10.9 °F 16% 29.86 in 10.0 mi West 28.8 mph 34.5 mph N/A   Clear
3:53 PM 55.9 °F - 10.9 °F 17% 29.79 in 10.0 mi WSW 23.0 mph 34.5 mph N/A   Clear
4:53 PM 54.0 °F - 12.0 °F 19% 29.80 in 10.0 mi WSW 18.4 mph 28.8 mph N/A   Clear
5:53 PM 48.9 °F - 12.0 °F 23% 29.84 in 10.0 mi WSW 19.6 mph 27.6 mph N/A   Clear
6:53 PM 46.9 °F - 12.9 °F 25% 29.82 in 10.0 mi WSW 18.4 mph - N/A   Clear
7:53 PM 43.0 °F 38.8 °F 12.0 °F 28% 29.81 in 10.0 mi South 6.9 mph - N/A   Clear
8:53 PM 39.9 °F 32.1 °F 14.0 °F 35% 29.79 in 10.0 mi SW 13.8 mph - N/A   Clear
9:53 PM 46.9 °F - 12.9 °F 25% 29.70 in 10.0 mi SW 21.9 mph - N/A   Clear
10:53 PM 45.0 °F 38.9 °F 12.0 °F 26% 29.70 in 10.0 mi SW 12.7 mph - N/A   Clear
11:53 PM 42.1 °F 34.5 °F 12.9 °F 31% 29.69 in 10.0 mi WSW 15.0 mph 20.7 mph N/A   Clear